Location: Newark
(29.9790°N, 31.1340°E)
Time: 10:17:23
(UTC+00:00)

Vanguard 3 - Pass Details

Date: 17 January 2021
Orbit: 508 x 3262 km, 33.4° (Epoch: 07 March)

Event Time Altitude Azimuth Distance (km) Brightness Sun altitude
Exits shadow 04:04:57 - 261° (W) 3,843 10.0 -10.3°
Reaches altitude 10° 04:05:35 10° 262° (W) 3,670 9.9 -10.2°
Maximum altitude 04:15:50 82° 350° (N) 2,239 9.3 -8.1°
Drops below altitude 10° 04:33:41 10° 79° (E) 5,975 12.6 -4.4°
Sets 04:38:50 0° 80° (E) 7,159 13.1 -3.4°
